Location: Gleizolles
(44.4833°N, 6.7667°E)
Time: 20:01:49
(UTC+00:00)

Envisat - Pass Details

Date: 01 December 2022
Orbit: 763 x 765 km, 98.2° (Epoch: 05 February)

Event Time Altitude Azimuth Distance (km) Brightness Sun altitude
Rises 05:34:47 0° 355° (N) 3,244 6.0 -12.9°
Reaches altitude 10° 05:38:25 10° 328° (NNW) 2,312 5.0 -12.3°
Enters shadow 05:38:57 11° 322° (NW) 2,230 4.9 -12.2°
